Theta_e
300 299 300 300 300 300 300 300 301 301 299 291 290 295 296 295 290 304 307 311 310 303 295 297 294 292 295 298 297 295 294 291 291 292 292 291 294 291 292 292 292 291 293 290 289 289 286 286 285 284 284 288 294 289 293 290 291 291 284 287 286 291 277 278 283 285 286 288 289 288 285 286 285 285 283 283 282 285 284 284 283 279 281 281 280 278 281
300 299 299 299 299 299 299 299 300 301 299 290 291 294 295 296 295 299 308 310 307 299 288 288 290 293 296 296 295 297 293 291 290 291 291 293 291 291 290 290 294 291 290 289 289 288 285 287 289 287 287 286 288 287 289 292 290 291 286 287 287 282 283 285 280 281 282 283 285 285 284 285 282 282 283 284 285 284 284 282 279 278 281 282 279 274 281
299 299 298 298 298 298 298 298 298 299 300 296 292 291 293 291 291 295 300 307 304 294 297 292 290 292 292 293 292 294 294 294 295 294 291 293 292 291 289 292 289 289 288 287 287 288 289 286 288 287 285 286 286 286 288 290 288 290 290 293 289 285 283 284 278 275 273 273 274 274 277 280 281 282 282 284 285 285 284 279 280 277 281 283 279 279 285
299 298 299 299 298 298 298 298 298 298 299 299 289 287 289 286 276 282 289 296 298 298 299 296 292 287 287 288 291 293 290 291 289 293 291 295 290 292 289 286 289 287 287 286 288 288 288 286 283 284 283 284 286 286 285 287 287 289 292 286 285 282 284 284 283 281 279 281 282 284 285 282 282 282 284 284 285 286 285 284 281 278 280 279 281 282 283
300 300 300 299 298 298 298 298 298 298 298 299 288 286 287 282 278 280 278 286 289 291 296 294 295 289 293 286 290 287 288 288 288 291 287 287 291 288 290 287 288 286 287 286 287 288 287 286 286 286 286 285 286 284 284 283 285 291 288 288 281 282 283 285 285 284 285 286 286 287 287 283 284 283 283 284 283 284 283 281 279 285 281 276 284 285 283
300 300 300 299 298 298 298 298 298 298 297 298 288 282 287 278 278 281 285 284 277 283 287 292 291 293 293 288 289 287 285 285 284 287 289 287 289 286 284 287 290 289 287 286 283 286 285 283 283 285 283 283 280 285 283 282 285 286 283 284 285 282 282 285 285 283 285 285 284 285 284 284 284 283 283 282 284 283 281 282 284 283 279 277 283 284 282
300 300 300 299 299 299 298 298 297 298 299 296 282 280 280 282 281 281 284 280 282 281 283 285 288 289 291 288 290 287 287 285 285 284 283 286 285 288 283 285 286 287 286 285 285 285 280 278 282 280 278 280 278 278 282 282 280 280 279 282 283 283 278 284 284 282 282 283 283 282 281 282 283 283 284 285 284 283 283 282 283 282 281 283 282 282 281
300 300 300 300 299 298 298 297 297 298 300 289 282 281 280 279 282 279 283 282 282 283 283 283 284 284 288 285 287 287 285 284 285 285 285 283 284 287 286 287 285 283 282 285 284 285 286 284 282 280 281 279 280 277 281 280 282 281 280 282 281 284 277 284 279 279 279 282 283 283 282 281 279 281 282 282 282 281 281 281 281 281 279 281 281 280 279
300 300 300 300 300 299 299 298 298 298 299 287 283 279 283 284 286 287 282 281 280 280 280 281 283 283 285 284 285 287 286 285 285 283 286 285 284 283 282 281 281 282 282 283 285 282 280 281 279 280 281 280 282 280 279 282 277 279 278 280 278 281 275 281 277 275 275 279 279 279 279 277 276 276 277 277 278 276 278 278 280 279 277 279 278 274 275
300 300 300 300 300 300 299 299 298 297 299 289 287 281 285 282 281 285 284 277 283 277 279 277 280 278 282 284 284 284 282 281 282 282 286 284 287 284 284 284 283 282 284 283 284 284 284 283 285 285 284 285 283 284 282 282 279 276 276 281 278 279 276 275 274 274 273 279 279 276 275 275 272 274 277 279 279 280 280 281 281 280 280 277 274 275 272
300 300 300 299 300 300 300 299 299 298 295 288 285 283 281 282 281 280 280 276 276 276 277 276 277 279 276 278 279 279 278 279 280 280 282 283 284 286 284 283 282 280 281 284 288 287 286 288 287 286 285 284 283 283 284 284 284 282 280 279 280 281 279 277 279 272 273 277 276 275 271 266 268 280 281 280 278 278 275 275 277 277 279 276 275 273 273
300 299 299 299 299 300 300 299 299 299 297 291 288 283 283 282 280 279 279 275 275 276 276 275 277 278 276 277 276 276 276 278 279 282 279 280 281 282 284 282 284 278 286 285 286 287 287 287 286 285 284 283 283 283 282 281 281 284 284 281 278 279 279 276 278 272 271 275 271 270 265 267 278 276 276 276 275 276 276 276 274 270 272 273 273 272 272
300 300 300 300 299 300 300 300 299 298 300 292 292 286 284 285 284 280 279 277 271 274 274 275 276 276 276 275 276 275 277 277 279 280 280 280 279 279 282 282 281 283 287 285 286 284 280 278 279 280 279 280 280 282 281 280 281 282 281 282 279 276 276 275 273 273 268 268 269 263 265 273 272 276 275 275 274 275 274 273 276 272 272 274 274 276 275
302 301 301 300 300 299 299 299 299 299 300 296 291 287 286 287 283 281 280 277 276 277 276 275 276 275 276 276 275 275 276 275 275 277 275 278 277 278 280 285 285 286 285 286 282 282 276 279 271 274 274 277 275 274 277 280 281 280 280 280 281 279 277 272 269 270 267 267 267 267 269 270 272 271 271 274 272 272 271 268 271 275 274 275 275 277 279
302 302 302 302 301 300 300 299 300 299 300 299 291 287 288 288 286 282 283 281 273 277 276 270 274 275 275 275 276 274 274 274 274 273 275 276 276 277 280 281 281 281 282 279 277 278 274 272 267 269 266 267 266 268 271 267 274 276 278 277 278 279 274 273 270 266 273 264 264 264 263 262 265 270 271 276 274 274 275 271 268 276 276 277 277 276 277
302 302 302 301 301 301 301 300 300 299 299 301 292 289 289 290 289 286 282 280 278 272 276 279 278 275 275 275 276 274 273 274 274 272 272 273 274 277 278 277 277 279 280 278 277 272 266 264 262 261 262 261 263 260 258 267 266 270 273 274 276 276 278 275 272 269 271 266 266 265 264 266 271 269 272 273 274 275 276 272 267 276 275 275 276 276 277
301 301 301 301 301 301 301 301 300 300 299 300 292 291 289 291 289 287 283 282 280 274 279 278 279 279 276 274 277 275 276 274 275 271 268 273 276 273 273 274 275 279 278 276 276 272 267 263 259 259 259 261 257 261 262 262 260 262 270 270 271 273 275 275 271 271 270 269 267 265 269 264 271 272 273 274 276 278 274 264 265 270 273 273 274 274 275
301 301 301 301 301 301 301 301 300 300 300 300 294 290 289 292 292 289 286 284 280 279 282 280 278 277 275 276 274 277 277 272 272 272 273 271 269 273 272 271 273 276 280 274 276 269 268 264 265 266 264 270 266 268 260 261 254 257 261 267 262 263 265 268 269 271 271 272 268 271 270 273 270 272 272 273 275 271 262 263 265 273 273 273 273 273 274
301 301 301 301 301 301 301 301 300 300 300 300 296 291 291 292 292 291 287 285 283 278 284 284 285 280 280 281 278 278 278 277 276 273 270 268 268 270 272 270 276 268 275 272 275 266 269 268 267 262 262 261 268 260 267 263 263 266 266 266 263 261 257 261 263 266 268 269 267 268 267 270 271 271 273 274 270 261 263 268 271 272 272 272 273 273 274
301 301 300 300 300 300 301 301 302 301 300 300 297 289 291 293 292 291 287 283 284 282 284 282 283 280 283 280 277 276 276 277 277 275 270 267 269 273 273 269 272 266 266 272 269 272 267 268 269 266 262 263 262 269 262 266 271 266 266 266 265 264 261 259 263 264 262 264 264 264 261 268 271 273 269 270 264 265 269 270 270 272 271 271 271 273 274
300 300 300 300 300 300 300 301 300 301 301 301 299 292 290 294 293 293 292 288 284 281 282 287 284 284 284 282 283 282 280 278 278 276 277 276 276 273 266 264 267 265 265 268 265 267 266 262 264 266 270 270 267 266 264 262 264 270 270 268 267 267 260 259 261 267 261 261 261 261 268 272 273 272 266 268 273 274 273 272 273 275 273 272 272 273 274
300 300 300 300 300 300 300 300 300 300 300 301 299 293 289 293 293 293 291 290 285 283 284 285 287 286 287 287 287 286 284 284 283 283 278 277 278 278 272 268 262 261 264 268 266 264 262 259 259 257 260 262 261 263 260 261 263 264 263 265 262 271 270 268 267 266 265 263 265 270 271 271 273 273 273 273 276 275 274 274 274 274 274 273 272 274 275
299 299 300 300 299 299 300 300 300 300 300 300 298 292 289 291 291 293 289 285 287 286 287 285 286 284 286 287 287 287 288 288 285 283 283 280 276 278 276 273 271 274 272 276 271 269 267 263 266 264 259 262 267 262 258 265 262 262 264 271 271 272 273 272 269 269 272 273 274 275 272 273 274 275 276 276 276 277 275 274 273 274 275 274 274 274 275
299 299 299 299 300 299 299 299 299 299 299 300 299 291 290 291 291 288 286 287 284 281 284 285 282 280 283 283 286 286 286 284 286 286 287 286 277 275 278 279 279 276 271 275 278 276 272 269 271 270 269 271 268 267 267 265 266 267 264 268 268 271 272 269 269 273 270 266 275 272 274 275 275 276 277 276 275 276 275 273 274 275 275 274 274 275 275
300 300 299 300 299 299 300 300 300 299 299 299 298 296 289 287 291 289 285 280 281 280 275 280 282 285 288 290 289 286 287 288 289 286 285 286 284 279 277 279 281 279 276 278 279 275 271 271 270 269 268 273 272 268 275 270 270 273 266 269 268 269 273 270 271 271 269 270 274 274 274 275 275 275 275 276 277 276 275 275 275 275 275 274 274 273 273
300 300 299 299 299 299 299 299 299 299 299 299 297 289 288 289 292 291 287 288 285 282 277 276 281 285 286 286 285 287 288 287 287 286 286 286 286 285 283 281 280 282 280 280 278 275 270 267 270 270 269 271 278 271 271 275 273 273 270 270 274 273 273 263 268 269 272 274 275 275 275 275 275 276 276 276 276 276 276 276 273 272 271 271 271 272 272
299 300 299 299 299 299 299 298 299 299 298 298 296 291 290 289 293 289 286 286 282 277 280 276 281 278 280 283 284 284 286 287 286 286 285 286 285 285 284 282 281 280 280 279 279 274 270 271 272 271 274 273 277 273 273 269 272 270 270 274 275 273 270 273 271 268 269 269 272 274 267 269 274 275 275 274 274 274 274 272 271 270 270 269 269 269 269
299 299 298 298 299 299 298 298 299 299 298 298 296 289 288 288 290 292 291 289 285 278 277 275 275 277 280 275 281 284 286 286 286 285 284 284 284 284 283 282 282 280 280 279 274 274 272 271 271 276 276 274 273 272 277 277 276 273 272 274 276 273 274 273 270 269 269 274 275 276 275 275 276 276 276 272 270 271 271 271 270 267 267 266 266 267 267
299 299 298 299 299 298 298 298 298 298 298 297 286 285 285 289 291 292 292 290 287 283 283 281 278 275 275 277 282 282 284 286 284 284 284 283 284 283 283 282 281 281 281 280 279 278 276 275 278 275 273 277 273 271 273 269 269 268 272 276 276 277 277 276 275 275 276 277 277 276 273 273 276 276 271 267 268 269 269 267 267 266 265 265 264 265 265
299 298 298 298 298 298 298 298 298 297 298 290 284 284 282 285 290 290 293 292 288 286 279 277 274 277 279 277 276 280 281 283 283 283 282 282 282 282 283 282 281 283 282 280 279 275 278 277 278 279 279 280 274 272 271 271 269 271 276 277 277 277 277 278 278 275 275 278 277 277 276 276 273 268 266 266 265 267 267 266 265 265 265 265 263 263 263
299 298 297 298 298 297 298 298 298 298 297 285 285 279 278 276 284 291 294 292 291 285 281 281 276 278 271 275 277 278 280 281 281 281 281 282 282 282 283 283 283 283 279 280 279 279 279 275 277 277 280 280 278 272 271 270 269 271 275 276 277 277 276 277 278 278 278 278 278 275 269 271 269 269 267 264 264 264 264 263 265 265 264 263 263 262 263
299 298 298 297 297 298 299 298 297 298 292 286 284 282 283 282 284 289 293 293 290 284 280 275 275 276 275 277 275 277 280 281 282 281 280 282 279 282 281 282 280 283 282 279 280 279 277 279 277 277 276 280 279 269 272 271 269 271 276 276 276 276 277 277 277 277 276 272 271 271 273 273 269 271 271 264 263 265 263 263 263 263 263 262 262 261 261
297 297 297 297 297 298 298 297 298 297 288 289 294 294 295 294 294 293 294 290 287 283 283 277 273 275 273 272 272 272 278 277 274 279 276 282 278 280 278 282 281 281 285 280 276 274 279 278 279 275 278 280 274 272 272 270 272 276 277 277 277 277 276 276 273 268 267 265 269 272 274 274 267 263 263 263 263 262 262 261 261 260 258 257 256 259 259
297 297 296 297 298 298 297 297 297 298 295 287 283 284 289 295 294 294 291 288 284 284 282 276 272 272 271 271 267 272 280 276 274 278 270 276 275 278 276 279 280 276 280 277 279 278 277 278 274 274 277 275 278 272 269 272 275 276 276 277 277 277 273 270 267 267 264 262 262 262 262 261 262 262 262 262 261 262 261 260 258 257 256 257 257 259 258
296 297 297 298 296 296 297 295 292 289 285 286 286 287 290 295 294 294 291 286 279 278 278 277 276 270 270 268 268 270 276 276 273 277 274 273 279 276 275 271 277 274 276 282 277 277 275 276 278 272 271 275 273 269 272 274 276 276 277 276 277 272 265 267 267 262 261 261 259 260 260 260 261 261 262 261 260 260 259 257 257 256 256 257 257 257 256
296 297 297 297 295 296 291 292 289 285 283 283 284 291 295 295 294 291 289 287 283 277 276 275 276 273 273 269 269 271 280 274 274 275 276 271 270 275 275 275 270 275 280 277 273 276 273 278 273 269 275 270 269 272 274 276 275 275 275 276 268 264 265 265 262 258 259 257 257 259 259 259 260 261 260 259 259 258 257 257 256 256 255 256 256 256 255
295 297 297 295 292 287 285 285 287 285 284 287 290 295 295 293 288 288 285 284 284 280 276 274 271 273 274 270 270 271 276 267 275 270 269 268 270 269 271 271 269 275 274 272 273 272 276 281 274 271 271 269 271 276 277 276 275 275 274 264 260 261 259 258 258 257 255 255 256 258 257 257 258 259 258 258 257 257 255 255 255 254 253 253 254 253 253
295 295 290 286 282 279 279 281 280 286 294 294 293 287 284 287 279 282 282 279 280 280 276 276 274 274 276 272 269 278 277 272 276 271 266 266 270 266 272 272 271 275 267 270 273 279 273 271 271 270 271 275 274 268 267 264 261 259 259 259 259 258 257 256 256 256 255 257 257 257 256 258 259 258 257 256 256 255 255 255 254 253 253 253 253 254 253
292 288 285 284 281 278 279 278 289 294 290 288 285 280 277 280 277 272 274 277 278 273 278 275 273 276 275 273 274 280 276 271 270 270 269 276 271 267 270 266 274 274 266 265 268 279 267 268 269 270 269 273 273 270 259 259 258 258 257 257 258 257 256 256 256 255 256 257 256 256 257 259 258 257 256 255 255 255 254 254 253 253 252 253 252 252 252
284 281 280 280 280 281 284 289 295 290 286 281 280 278 273 278 275 270 273 268 269 270 274 271 277 276 277 275 273 273 281 274 269 269 271 270 277 268 270 267 270 269 263 265 266 270 265 261 263 265 267 271 272 261 256 258 255 255 255 255 256 256 256 255 255 256 256 256 256 256 256 256 255 255 253 253 252 252 252 252 252 252 252 251 252 252 251
283 280 279 278 276 278 283 287 283 279 279 277 275 275 272 269 272 270 272 267 266 263 265 268 273 273 276 277 277 273 280 279 271 270 271 268 276 272 265 265 271 264 262 262 268 262 258 255 256 260 267 271 267 255 255 254 254 253 254 253 254 254 255 254 255 255 254 254 255 255 255 254 253 252 252 251 251 251 251 251 251 251 250 250 250 251 252
284 282 280 282 281 281 284 282 279 277 276 276 271 269 271 270 268 265 268 267 268 265 263 270 270 273 271 277 275 278 273 273 272 274 270 267 275 270 266 264 268 264 262 267 263 259 261 260 257 255 261 260 251 252 252 252 252 251 252 252 253 253 253 253 252 253 254 253 253 253 253 252 250 250 250 250 250 250 250 250 250 250 250 250 251 251 251
288 285 284 280 279 279 279 275 276 274 269 269 268 265 269 264 268 267 266 268 263 262 263 267 267 276 275 273 269 271 272 276 273 270 269 266 275 270 264 264 262 261 265 261 261 261 258 258 256 263 262 253 250 250 251 251 252 252 252 253 253 253 253 253 252 252 252 253 251 251 251 251 251 251 251 250 250 248 249 249 250 250 250 250 250 250 250
285 284 279 277 275 276 277 268 276 270 268 268 267 264 265 264 264 262 259 263 261 263 268 271 271 272 269 273 272 270 270 275 276 264 265 269 267 264 266 261 263 266 263 261 260 258 260 256 262 264 253 250 251 250 251 251 251 251 251 252 251 252 253 253 254 252 252 252 251 251 251 251 251 251 250 249 249 248 248 248 249 249 250 249 249 250 250
279 275 275 273 271 275 271 266 273 268 266 267 271 264 265 265 266 265 268 265 267 268 270 270 272 271 269 267 267 269 274 264 271 267 265 267 264 264 262 263 262 260 262 261 258 257 256 259 260 252 250 251 252 251 250 250 250 250 250 250 251 251 252 251 251 251 251 251 251 251 250 251 250 250 249 249 248 248 247 248 249 249 249 249 250 249 250
276 273 272 268 266 271 269 265 266 263 266 269 267 265 268 269 269 268 266 263 264 262 269 271 270 269 266 265 270 269 263 264 266 267 267 264 262 262 264 263 264 262 259 258 256 258 262 264 267 259 252 252 252 251 250 249 250 249 249 248 250 249 249 249 249 250 251 252 251 251 251 250 250 249 249 249 248 248 247 248 249 248 249 248 248 248 249
276 276 271 271 267 269 269 264 264 265 265 265 266 270 272 270 265 266 262 261 265 265 265 264 269 268 267 264 265 265 261 261 264 265 262 260 260 262 268 262 260 260 259 257 255 254 256 262 253 249 252 251 250 248 248 249 248 248 249 249 249 249 249 249 249 249 250 251 250 250 250 249 249 249 249 248 248 247 248 248 248 249 248 248 248 248 248
273 274 272 266 265 268 266 267 262 258 257 258 257 257 257 260 265 262 260 258 264 268 269 268 267 266 266 265 263 263 259 256 259 263 265 264 266 261 262 261 259 259 256 256 259 260 261 252 249 251 250 250 249 248 247 248 247 247 247 248 248 248 248 248 248 249 249 248 248 248 248 248 248 248 249 249 248 248 248 248 248 248 247 248 248 248 248
272 270 270 268 265 263 261 260 264 267 260 257 256 258 262 267 268 266 260 259 265 269 265 266 264 265 261 265 265 267 263 263 257 260 264 262 261 261 260 257 256 255 258 259 263 256 253 251 249 248 247 247 248 247 247 247 247 247 247 247 247 248 248 248 248 248 248 248 248 248 248 249 249 248 248 248 247 248 250 248 248 248 248 248 248 248 248
265 263 260 259 260 261 258 259 263 262 258 258 259 259 259 266 265 258 259 259 260 263 268 272 273 269 265 265 262 264 262 262 263 264 261 260 261 258 257 254 255 258 258 254 250 249 249 248 248 247 245 245 246 246 246 246 248 248 247 247 247 247 247 247 247 247 247 248 247 247 247 247 248 247 247 247 248 249 249 248 248 247 248 248 248 248 249
267 265 261 260 261 263 265 264 266 262 259 262 262 260 260 260 260 258 261 260 263 264 263 261 265 261 263 263 263 261 263 263 261 263 262 261 258 257 256 258 261 259 253 250 249 249 248 245 246 245 243 243 244 247 247 249 246 247 247 246 247 247 247 246 246 246 247 247 246 247 246 246 247 247 247 248 248 248 247 248 248 248 247 248 249 249 249
265 263 262 259 257 258 260 263 262 262 263 263 262 259 262 259 257 257 261 262 265 267 265 259 261 262 261 262 264 262 263 262 261 258 256 257 253 255 254 255 254 253 252 249 247 244 244 241 242 245 243 245 246 245 244 243 242 241 240 241 242 243 244 246 247 247 246 245 245 244 245 245 246 246 247 247 246 246 245 246 249 249 249 249 249 251 251
Wind_Speed
2 1 3 3 4 4 5 7 9 12 12 4 3 1 2 2 3 1 2 4 8 7 7 4 3 6 3 2 3 1 3 3 2 0 1 1 3 0 2 4 4 4 6 4 6 6 6 5 5 3 3 5 8 5 8 4 5 1 3 2 1 4 1 1 11 5 4 7 6 5 2 3 2 3 1 3 6 10 12 12 6 8 9 13 10 13 4
2 0 1 3 2 3 5 6 6 10 10 2 2 0 1 1 0 1 1 3 1 8 10 9 9 6 4 4 6 1 2 1 2 2 1 3 0 3 2 2 5 5 3 1 5 3 6 4 11 6 4 5 3 7 5 4 0 0 4 3 4 2 4 5 8 5 5 4 3 4 2 2 1 2 3 5 4 3 6 3 1 4 6 9 9 13 4
2 2 2 2 1 2 3 4 5 7 10 5 1 2 0 1 2 1 2 1 2 7 3 5 4 7 8 6 9 8 4 5 8 5 5 2 3 1 3 4 0 2 1 1 1 2 10 6 2 3 1 3 1 7 7 6 2 0 2 1 1 3 2 4 10 10 10 9 11 7 5 4 1 2 2 3 3 7 5 6 2 7 3 11 6 4 3
5 5 4 2 1 1 1 2 4 4 7 9 4 1 2 2 2 1 3 3 2 3 1 1 4 4 3 5 7 7 9 4 1 7 3 6 3 4 3 1 2 2 2 2 3 4 2 6 3 2 1 2 2 1 4 5 1 1 3 2 1 1 2 2 7 10 12 11 7 1 0 2 5 4 5 8 5 3 5 7 10 14 15 13 11 13 14
7 6 5 4 2 0 3 3 4 3 6 8 1 1 2 1 3 3 2 3 3 3 1 2 4 4 4 5 2 7 9 5 3 7 1 2 5 2 7 3 3 3 6 7 9 7 9 5 6 8 10 2 2 2 4 2 2 4 2 0 3 1 5 8 12 13 13 13 13 12 8 13 11 13 13 10 8 10 11 10 14 8 9 15 8 12 11
7 6 6 4 3 2 2 2 2 4 4 9 3 0 1 1 2 3 2 4 5 4 8 6 5 2 2 4 2 4 3 1 3 2 1 0 1 3 4 2 9 8 8 2 3 1 5 2 6 3 2 4 3 5 2 1 3 2 0 0 3 2 8 7 10 13 10 13 14 12 11 9 10 12 13 15 13 9 13 16 14 8 11 15 12 13 15
7 7 7 6 6 6 4 2 1 2 7 6 2 2 3 2 1 0 2 2 2 1 1 3 4 9 7 2 2 8 8 10 5 1 2 1 1 3 6 4 5 6 6 5 6 5 6 6 4 4 4 6 3 3 2 1 3 2 1 0 2 1 4 8 10 12 9 10 10 6 9 8 9 10 10 10 11 15 15 14 11 12 14 12 13 14 19
7 7 7 7 6 5 4 4 4 2 7 5 3 0 1 1 0 1 3 2 2 2 4 1 1 6 8 6 9 5 5 13 7 1 3 5 6 1 8 10 5 3 5 6 8 9 9 9 14 2 3 3 4 3 4 1 1 2 0 1 4 3 5 4 2 3 6 6 7 5 7 8 11 8 8 10 11 13 11 12 15 15 13 15 19 18 16
9 9 9 9 8 7 5 4 3 5 7 3 1 2 1 1 1 0 1 1 2 3 1 1 1 2 3 9 7 6 7 11 1 3 1 4 5 1 1 3 4 1 1 4 6 4 3 4 1 2 2 5 3 1 2 5 1 2 0 0 4 2 5 4 2 8 13 10 11 10 5 5 8 10 12 16 17 16 13 14 10 11 16 17 12 8 7
10 10 9 10 10 9 7 6 5 4 6 3 0 1 1 1 1 1 0 0 1 4 1 0 2 7 5 4 3 3 2 0 1 2 3 5 6 3 3 3 3 2 2 3 3 2 2 1 4 5 4 2 5 4 3 3 1 0 2 1 1 1 0 2 2 10 11 12 7 2 1 8 12 14 18 20 20 18 17 16 14 16 10 12 13 10 2
11 11 11 11 11 10 9 8 8 7 8 3 2 1 1 1 0 2 1 2 3 5 4 2 4 2 4 2 1 3 1 2 2 4 2 5 1 5 3 3 3 2 4 2 3 4 3 3 5 4 4 6 6 5 6 5 5 5 3 0 2 3 6 6 4 6 3 5 4 2 5 14 14 5 2 6 14 12 13 13 12 6 4 3 1 4 3
13 12 11 11 11 12 11 10 10 10 10 6 5 3 3 3 4 2 1 3 3 2 5 5 5 2 2 1 2 0 1 1 1 3 2 1 1 2 0 2 2 3 1 2 2 2 4 3 3 4 6 7 8 7 6 8 9 6 7 7 5 6 5 7 4 4 6 4 4 10 17 17 4 2 3 3 3 3 7 6 1 2 4 5 5 5 4
14 14 14 13 12 12 13 12 11 11 12 6 5 4 2 2 4 2 2 2 3 3 3 4 1 1 2 1 1 2 2 2 0 2 3 5 6 3 1 2 2 3 3 2 2 4 3 7 7 6 8 6 6 7 10 10 12 11 8 10 9 7 9 6 5 4 2 2 6 9 11 2 5 3 4 3 3 1 5 3 5 3 6 7 7 6 6
15 16 16 14 14 13 13 13 12 12 13 10 6 5 5 4 4 2 2 2 4 2 4 6 5 7 5 5 3 3 0 3 3 1 4 2 4 4 3 2 2 1 1 2 2 1 5 2 4 2 5 3 1 4 7 11 13 14 13 12 12 13 8 5 9 5 13 8 11 16 6 11 9 7 2 6 4 4 4 8 4 10 5 5 4 2 4
17 16 16 16 16 15 15 15 14 14 14 15 6 4 6 5 6 4 1 2 2 1 4 3 1 2 1 3 2 2 2 3 1 4 2 1 0 3 2 1 2 0 1 1 1 1 3 0 4 7 3 2 9 8 4 2 4 2 8 6 8 9 11 5 7 4 8 5 7 7 5 9 4 3 3 1 2 1 1 5 5 8 6 3 4 3 5
16 16 16 18 18 17 15 14 15 15 15 16 7 5 7 8 5 5 3 3 1 5 6 10 6 4 3 1 2 5 3 2 3 1 3 2 3 4 2 1 1 1 1 2 2 3 1 4 5 3 7 5 3 2 4 3 5 1 3 1 4 3 7 5 8 5 4 2 7 9 8 6 3 4 3 3 1 1 2 4 6 3 9 4 6 5 6
18 18 17 17 18 19 19 18 16 16 17 14 8 7 6 8 6 6 4 2 4 8 1 3 4 4 2 0 2 1 3 3 2 1 2 3 2 1 6 4 1 1 3 3 2 2 1 1 0 3 3 2 1 4 3 1 0 5 2 5 6 2 4 5 7 8 7 8 8 10 3 2 2 4 2 3 2 1 1 6 5 3 11 7 6 8 7
19 18 19 18 18 19 20 21 20 18 18 14 9 7 4 7 8 8 3 5 7 8 8 6 5 5 6 5 4 2 3 1 1 0 1 1 1 1 2 1 0 3 4 3 2 3 3 2 4 5 5 2 4 2 4 4 1 4 1 0 0 1 3 3 10 10 12 16 11 7 5 1 4 6 5 2 2 2 1 13 2 8 10 7 6 7 8
20 20 20 20 19 19 19 20 20 21 21 17 6 2 4 8 9 9 4 4 6 9 5 10 10 6 3 2 5 4 5 6 5 2 2 4 4 4 5 2 2 1 1 6 1 3 4 4 2 1 2 5 2 5 2 0 4 1 1 4 3 3 2 4 1 5 11 8 11 10 3 4 6 4 5 3 4 3 9 3 5 8 9 6 7 8 8
20 20 21 21 21 20 19 18 19 19 20 22 12 7 3 8 11 13 10 9 5 10 9 7 8 13 6 8 7 4 1 1 5 5 4 5 2 2 1 1 4 5 2 2 1 2 3 6 5 1 2 5 5 4 1 6 2 4 2 4 3 5 2 4 6 2 1 0 6 5 8 2 7 7 3 1 5 7 3 2 3 6 5 5 6 8 10
21 22 22 20 20 20 19 19 20 19 20 21 17 6 6 8 11 11 11 10 6 7 12 6 4 13 9 12 15 13 12 12 9 7 9 6 5 5 2 4 6 3 5 4 7 4 4 3 2 4 3 4 5 3 5 1 4 5 5 6 5 2 2 4 5 5 5 4 6 5 6 4 8 7 5 4 9 4 4 1 7 5 3 4 4 7 9
22 21 22 21 20 21 20 20 20 19 19 20 17 5 9 7 10 11 10 8 9 10 2 1 6 11 13 15 14 12 14 15 14 9 6 5 3 8 5 4 6 4 3 3 4 2 2 1 3 1 3 3 1 5 2 1 5 3 3 2 5 5 9 9 10 2 6 6 6 5 4 3 3 3 4 4 6 5 5 4 5 5 7 3 4 7 7
23 24 23 22 21 21 21 21 20 21 21 21 16 7 10 5 8 8 8 8 5 4 2 3 0 2 3 7 6 8 13 11 7 5 8 7 5 4 7 5 6 3 2 4 7 5 5 7 7 4 1 3 7 4 1 6 4 0 3 4 7 4 3 2 2 5 4 7 12 5 1 6 7 7 8 9 10 9 5 5 5 7 8 5 6 5 6
24 24 23 23 22 22 21 21 21 20 21 21 15 6 7 6 6 6 2 5 5 8 6 5 3 7 13 18 14 6 6 5 10 12 8 8 7 6 2 5 2 2 1 6 6 5 4 4 4 3 7 4 5 4 7 7 8 3 2 8 3 8 4 3 8 10 8 14 10 1 10 11 10 12 11 7 6 8 4 4 7 8 7 5 5 7 7
23 22 23 21 21 21 20 20 20 21 21 20 16 9 3 1 6 10 8 6 5 8 8 4 14 20 16 7 3 8 14 11 8 8 8 10 12 11 13 6 6 10 9 5 2 3 2 5 2 1 9 5 7 8 7 7 8 9 8 9 3 7 5 6 12 11 11 16 15 10 7 8 7 7 8 11 11 7 6 7 6 6 6 5 5 3 5
21 22 24 23 22 23 22 20 22 21 21 22 17 7 7 8 7 8 4 5 2 2 6 9 7 2 2 6 10 12 8 11 11 11 13 15 15 15 9 3 1 1 2 3 5 5 3 1 4 4 5 5 7 7 7 8 7 4 9 13 11 4 6 4 2 6 12 14 16 13 9 11 13 13 10 10 10 11 11 7 3 3 4 3 2 1 2
24 23 25 24 23 22 22 22 21 21 23 21 12 7 8 5 9 12 9 8 3 6 7 10 6 1 0 10 2 3 6 12 11 13 13 13 13 10 7 6 5 3 5 3 1 2 1 3 5 9 7 6 3 3 3 3 7 7 9 14 5 3 12 4 1 11 13 13 13 5 5 10 11 8 8 6 6 6 7 4 1 1 1 2 4 2 1
24 23 23 25 24 23 24 23 21 22 22 20 11 6 5 6 8 10 10 10 12 9 0 2 1 3 1 3 3 5 8 12 14 13 13 13 12 10 10 10 9 7 6 8 6 5 5 7 10 4 3 0 3 8 8 7 4 7 11 16 7 10 11 6 9 11 15 15 11 8 9 11 13 13 9 0 0 1 3 2 1 1 2 1 1 5 4
24 25 26 23 21 24 25 24 23 23 23 18 2 6 2 7 8 10 11 9 7 5 6 3 1 2 5 4 2 7 6 9 12 13 13 12 12 12 12 12 11 11 8 8 7 7 8 9 6 5 4 4 3 5 3 6 7 11 17 19 12 10 7 11 14 14 16 17 16 9 5 10 12 9 0 3 0 3 2 3 2 2 1 1 1 1 3
24 27 26 25 25 25 24 23 23 23 21 3 7 1 3 4 9 10 11 10 8 4 5 5 7 4 3 1 4 5 6 8 10 11 13 11 11 12 13 13 11 10 9 7 8 7 9 5 7 6 5 6 4 2 5 6 9 14 18 17 12 10 9 12 13 14 16 17 11 9 8 10 3 1 5 3 2 1 4 3 3 2 1 1 1 2 3
24 25 27 27 26 25 25 25 25 23 16 5 5 4 4 6 4 11 16 12 10 7 3 3 6 1 3 2 2 8 9 8 10 12 14 13 12 12 9 7 7 8 8 8 9 11 6 5 6 6 5 11 8 4 7 7 10 12 18 8 10 11 13 15 15 15 16 15 15 6 2 4 3 2 1 3 1 2 1 1 1 0 1 1 3 3 4
23 24 25 27 26 24 24 24 24 22 8 9 10 8 4 4 4 12 18 12 9 5 4 4 3 3 3 2 2 2 7 10 8 4 2 5 6 6 6 10 8 10 11 11 8 3 7 6 6 8 8 11 9 2 4 8 12 18 14 7 9 9 11 12 12 12 10 5 3 7 11 10 5 8 6 4 1 1 2 1 1 1 2 2 2 2 3
25 25 27 27 24 22 25 26 25 17 8 9 8 3 5 9 11 13 11 10 6 3 2 3 5 1 2 4 1 1 3 3 1 5 4 5 6 5 6 7 6 4 9 7 5 5 3 7 9 11 11 4 4 3 6 12 16 16 16 14 13 13 13 10 6 3 0 1 3 11 14 10 3 1 2 1 1 1 1 1 2 1 1 2 3 3 1
24 23 24 24 24 24 26 26 24 23 12 6 3 8 4 10 13 18 12 7 3 2 3 3 3 4 4 2 1 3 5 7 5 8 4 2 3 5 4 4 6 4 6 10 5 3 3 3 9 6 2 8 8 4 9 14 14 15 16 16 14 13 6 4 4 4 1 3 4 3 2 2 2 2 2 1 0 2 2 2 4 4 4 3 3 4 4
24 23 24 23 23 24 22 21 11 8 8 6 6 3 11 17 14 20 17 7 5 4 4 4 3 4 2 0 4 5 3 5 4 7 9 3 2 6 2 3 4 7 6 6 4 8 8 7 4 3 10 4 6 8 8 8 13 15 16 16 15 5 1 4 4 2 1 2 2 1 2 3 3 2 1 1 3 3 5 3 3 3 6 4 5 5 4
24 21 20 22 23 18 7 10 7 6 5 6 5 10 22 21 18 13 13 8 5 4 5 4 5 9 7 7 5 2 4 3 0 3 2 2 1 0 2 4 6 6 2 5 7 7 9 5 5 9 6 6 12 10 12 13 16 17 15 15 3 2 2 3 1 2 0 2 1 2 2 1 1 1 1 1 1 2 4 4 5 3 3 7 5 6 5
21 19 19 16 6 3 8 7 4 8 6 5 6 13 18 12 3 4 2 2 3 2 4 3 3 7 8 5 1 2 5 5 3 2 1 2 5 0 2 2 7 2 4 4 6 8 9 7 6 9 8 12 14 13 14 13 13 15 14 1 4 3 3 2 2 2 2 3 3 1 0 0 0 1 1 1 2 2 3 4 4 5 6 9 9 8 6
20 18 7 2 4 6 3 5 4 6 16 21 17 7 2 6 3 4 3 4 1 4 2 3 8 1 3 3 3 4 5 4 3 6 2 2 3 2 1 2 5 5 8 6 9 5 2 3 6 8 12 13 9 2 5 4 1 4 4 5 3 4 3 3 1 4 2 1 3 2 1 1 1 0 1 3 2 3 3 2 3 3 4 5 6 6 8
14 4 4 5 4 5 5 3 7 20 13 5 4 2 2 1 4 2 4 2 2 4 4 6 8 5 5 6 2 3 5 6 5 3 6 5 5 4 2 5 4 5 4 1 5 10 4 4 4 7 11 9 9 7 3 4 5 4 4 3 4 4 4 3 4 2 3 3 2 3 3 3 4 5 2 5 4 4 3 3 3 4 4 6 6 6 7
4 6 6 4 7 4 2 10 24 14 5 5 2 4 3 2 5 3 2 2 1 2 2 6 4 7 10 11 7 6 4 5 7 8 8 3 2 4 2 2 2 2 4 5 4 4 5 3 3 3 12 7 11 2 4 5 6 4 2 3 3 5 3 3 2 1 2 1 1 1 0 1 2 4 5 5 5 7 6 5 4 5 6 6 7 7 8
2 3 2 5 2 3 3 6 3 3 3 4 3 1 3 1 2 1 3 2 2 2 1 3 3 4 5 7 7 9 3 3 1 2 2 4 1 5 3 3 1 2 2 3 1 4 2 1 1 5 8 7 8 4 4 4 3 3 2 2 3 2 3 1 3 1 1 1 1 2 2 3 3 3 3 4 5 6 7 8 8 7 7 7 8 8 6
3 3 1 4 4 5 5 2 2 2 0 1 3 4 3 1 2 1 1 6 5 2 2 3 3 7 7 11 8 6 2 1 2 1 2 3 2 4 2 0 1 4 4 2 3 2 2 3 2 5 8 7 1 2 4 5 3 3 3 1 2 2 2 1 1 1 1 1 1 2 3 3 4 4 4 4 5 6 7 7 9 7 7 7 6 7 7
19 12 6 4 1 1 2 3 2 2 4 3 3 2 2 4 3 6 3 1 2 2 3 1 1 1 1 3 2 0 3 2 2 1 2 4 0 3 2 1 2 1 3 2 2 2 3 4 5 9 7 4 4 4 4 4 3 3 2 2 1 2 1 0 0 1 2 2 3 3 4 4 5 5 4 4 7 9 8 8 9 9 7 7 7 6 6
7 4 3 1 3 3 3 7 2 3 2 2 5 8 4 4 2 3 2 5 3 3 6 9 8 9 6 2 5 2 2 0 3 2 1 1 2 2 2 3 4 2 3 0 2 3 5 3 7 6 1 2 3 3 4 3 2 3 1 2 2 1 1 0 1 1 2 1 3 3 3 4 6 6 4 5 5 10 11 10 8 8 7 6 7 7 7
4 1 3 2 3 3 4 3 2 3 7 6 6 5 5 10 8 9 12 4 6 8 5 4 7 6 5 2 4 1 2 2 1 3 3 3 0 1 3 4 1 1 2 3 1 2 2 5 6 3 3 5 5 4 4 3 3 2 1 1 1 1 2 3 3 3 3 3 4 4 4 4 4 5 5 6 6 6 7 9 8 7 8 7 8 8 9
4 5 4 3 4 3 4 2 1 2 2 3 5 6 9 10 10 10 3 3 6 4 10 9 8 6 4 1 5 4 2 3 2 2 2 1 3 3 2 1 1 1 1 0 2 6 8 7 9 4 3 7 7 5 4 3 3 2 2 1 0 1 2 2 3 3 5 5 4 3 5 3 5 5 6 5 5 5 6 7 6 7 8 7 8 9 9
2 1 2 1 2 2 3 4 5 4 2 3 5 8 10 8 3 4 3 2 7 6 6 2 4 4 7 3 2 1 2 1 2 1 3 1 3 1 1 2 2 2 3 3 4 5 6 9 2 2 6 7 7 5 4 3 2 2 1 0 1 1 2 3 4 4 4 4 5 5 5 5 5 6 6 6 5 5 6 6 7 7 7 9 9 8 8
5 1 3 3 4 3 6 5 2 2 3 1 2 1 0 3 8 3 3 2 4 7 9 7 4 1 2 1 4 4 2 1 2 3 3 2 2 2 1 0 2 2 3 4 7 8 8 2 4 5 4 4 5 5 3 2 1 1 0 0 1 2 3 3 4 5 4 4 5 5 5 5 5 5 6 7 7 7 6 6 7 7 7 7 7 8 8
2 3 3 4 1 1 1 2 5 7 1 4 3 1 4 8 7 7 6 3 6 7 5 7 4 6 2 1 3 2 1 1 3 3 2 0 2 3 3 3 3 4 5 8 9 5 2 3 4 6 4 5 4 4 3 1 1 0 0 1 2 3 3 4 5 5 4 5 4 5 6 6 6 6 6 7 7 8 5 5 7 7 7 8 8 8 8
3 2 3 3 2 1 2 1 2 0 2 3 1 2 3 3 6 2 1 3 2 7 3 4 2 3 2 3 1 1 1 1 2 1 2 3 3 1 2 2 4 6 5 3 2 1 2 4 5 5 4 4 2 2 1 0 0 0 1 2 3 3 3 4 5 5 5 5 5 6 5 6 7 5 7 8 8 8 8 8 8 8 9 8 7 7 8
2 2 1 1 2 3 6 5 8 4 2 5 4 3 1 1 1 3 0 3 4 4 4 3 2 4 2 2 2 1 2 2 2 4 5 4 2 3 4 5 7 6 3 1 1 3 5 4 5 5 3 2 2 1 2 1 0 2 2 3 3 3 4 3 4 5 5 4 5 6 7 7 7 7 7 6 7 8 8 9 9 7 7 8 7 8 8
2 2 1 0 1 1 0 1 1 1 3 2 6 4 4 2 3 4 1 3 4 6 4 2 4 3 2 4 3 2 1 2 1 2 0 5 3 5 6 7 4 2 5 5 4 2 3 2 3 5 5 4 2 2 1 1 1 3 3 3 3 3 4 5 4 5 5 6 6 6 7 7 7 7 6 6 7 6 6 7 7 6 6 6 7 8 8
Wind_Direction
183 97 47 8 344 347 359 356 357 17 19 45 342 299 177 206 204 316 259 224 170 154 222 208 196 213 244 35 291 219 277 225 199 334 93 15 186 222 208 210 231 240 238 210 239 202 261 176 230 204 239 237 224 302 1 72 20 57 297 332 282 87 86 278 262 265 292 286 276 269 136 158 330 280 147 124 204 204 230 243 252 253 263 255 255 248 257
30 93 54 45 359 358 9 359 6 20 38 64 331 121 232 33 29 342 281 212 331 181 204 209 213 232 259 230 255 194 205 275 293 214 217 198 164 187 199 331 199 254 237 216 249 193 273 228 244 257 228 258 349 21 26 319 205 207 243 201 261 317 256 243 290 289 289 297 341 313 2 68 193 185 230 208 253 283 266 316 111 251 184 240 249 249 241
230 233 244 232 255 3 15 19 2 11 19 34 34 143 51 76 329 282 312 293 229 219 215 211 206 222 230 234 241 246 249 218 235 247 249 202 210 33 271 225 100 256 65 288 303 229 224 277 255 191 238 242 48 0 52 42 113 338 318 129 11 260 221 246 261 263 272 269 261 262 263 239 310 326 307 309 239 257 287 278 9 273 200 213 232 270 235
216 223 221 249 306 357 14 20 17 3 26 42 69 251 84 194 146 289 2 332 318 284 93 79 207 214 234 256 253 257 261 272 244 180 254 193 207 216 216 235 159 186 270 252 253 267 178 211 266 338 279 283 340 127 6 77 138 261 121 37 69 198 297 223 247 250 259 264 282 202 310 268 265 258 264 271 259 217 236 267 258 258 269 264 251 266 275
218 224 227 229 242 348 352 341 14 12 22 53 99 348 146 298 117 167 241 352 294 261 349 225 192 219 176 232 191 236 227 253 300 181 233 264 188 226 206 188 195 235 219 236 259 239 263 225 250 243 253 256 244 286 140 125 45 197 118 25 88 163 236 211 250 251 259 268 273 281 288 282 280 279 274 268 250 249 250 231 252 270 293 257 254 256 261
236 236 233 222 233 246 256 321 335 355 26 38 61 48 308 87 258 99 225 138 229 183 254 229 240 238 142 234 318 267 256 205 233 352 207 25 118 175 330 264 211 212 214 215 244 172 251 169 245 264 255 250 321 303 344 87 309 96 91 314 172 181 253 262 263 265 265 270 273 275 276 262 268 265 271 272 272 249 241 251 254 255 248 269 278 287 282
233 238 238 226 219 212 221 203 314 81 106 89 98 97 289 125 312 137 331 146 288 139 35 34 239 247 236 266 228 253 245 253 229 179 322 38 300 197 245 231 227 219 240 218 240 240 273 261 243 231 254 227 252 267 290 227 33 57 33 317 189 168 249 244 250 267 266 271 271 271 264 273 266 262 258 261 260 261 258 264 264 251 257 270 281 274 269
240 246 239 239 237 239 221 221 220 142 97 73 60 48 108 321 56 290 26 78 37 3 25 33 67 220 228 238 229 249 245 254 265 261 212 267 265 122 243 257 287 262 224 214 232 234 242 262 271 254 160 274 186 235 214 212 347 68 257 291 300 209 270 63 107 270 256 247 258 263 269 274 277 278 281 272 269 268 269 274 267 272 269 259 257 262 270
238 238 237 233 234 225 215 207 191 140 107 28 92 294 90 237 86 34 82 35 193 81 241 131 171 245 211 223 240 245 231 254 226 240 29 220 251 96 228 17 329 16 255 241 246 58 74 52 141 346 37 298 334 104 269 104 190 337 38 320 308 344 265 331 4 289 272 266 268 272 294 297 280 278 272 264 261 267 262 258 262 266 267 267 271 262 248
233 235 237 238 234 227 212 218 186 223 118 108 91 59 245 52 302 75 95 278 172 133 108 95 119 234 224 205 227 218 264 25 87 275 109 40 96 108 87 342 61 286 339 322 78 139 84 284 294 304 295 227 287 314 288 328 142 225 134 240 208 227 147 322 298 266 256 261 273 301 40 299 276 253 252 258 262 257 261 261 261 253 273 271 262 273 85
229 234 235 232 233 233 224 214 212 194 121 135 121 202 137 121 85 29 47 118 300 142 140 249 173 241 84 358 229 24 106 19 28 189 240 114 339 87 42 8 10 272 252 169 145 188 217 205 215 202 229 240 241 239 238 235 209 203 177 73 243 214 247 255 255 255 306 291 325 17 292 254 248 257 211 218 246 253 257 258 254 265 147 241 246 156 180
224 225 227 228 229 231 230 221 216 188 149 175 132 171 202 124 84 83 109 175 270 133 181 213 182 284 85 267 84 29 65 22 272 16 259 329 223 336 170 280 229 281 104 117 205 242 237 235 216 230 220 241 246 250 246 250 253 220 209 212 219 228 238 249 221 253 263 277 0 294 247 261 330 43 306 336 280 249 245 271 200 152 108 120 110 131 147
225 224 225 224 228 227 227 229 217 210 156 149 130 182 228 153 127 143 144 135 252 169 155 255 14 77 114 69 33 209 233 243 97 325 303 270 298 297 237 219 233 247 88 181 50 4 340 302 303 277 269 268 260 240 246 242 242 234 216 210 213 229 234 247 239 232 333 152 234 248 266 81 300 322 333 316 63 70 79 279 186 192 170 152 160 187 188
244 234 227 226 226 223 224 221 218 223 181 150 151 180 147 144 125 112 145 147 253 167 209 272 265 260 244 241 224 251 197 297 262 207 267 246 233 264 279 224 235 91 115 104 62 220 313 246 301 341 274 231 274 266 234 236 232 229 225 215 209 222 239 215 270 184 256 247 244 252 331 309 270 285 226 170 186 191 174 239 245 189 191 147 162 220 209
244 248 249 240 228 229 227 220 220 217 200 163 158 128 152 165 138 141 218 139 234 271 157 209 219 185 178 234 196 228 242 274 25 284 237 316 26 232 207 266 349 74 88 88 322 18 176 234 275 273 316 264 274 266 23 329 319 257 241 238 210 211 210 206 222 266 209 254 271 296 284 258 277 232 278 258 177 148 259 99 300 159 203 149 161 195 230
239 241 237 236 242 238 234 238 229 216 216 171 152 160 181 176 145 120 137 148 137 281 248 211 187 132 144 209 170 162 211 167 195 91 327 279 247 308 302 39 304 104 112 104 187 118 219 147 234 216 249 243 273 54 297 29 332 306 57 51 177 223 223 223 219 261 275 253 235 247 256 266 143 210 193 254 181 104 218 76 274 173 179 214 181 234 234
243 237 236 236 234 238 236 232 237 227 222 176 167 169 198 169 155 161 136 176 185 219 95 88 141 157 122 314 97 310 205 209 179 148 286 262 238 303 297 323 320 149 201 81 253 89 359 285 192 188 276 148 56 224 324 24 269 321 342 39 48 109 202 191 230 231 220 248 253 250 236 241 221 178 198 230 90 137 53 320 304 124 204 203 194 219 234
248 246 243 239 237 235 234 235 230 231 237 209 149 176 189 177 175 140 166 185 215 252 217 158 120 156 185 178 177 205 83 61 44 219 172 244 50 281 264 345 314 288 153 96 222 96 195 194 209 242 235 244 151 48 250 158 151 224 297 319 259 321 331 233 219 227 233 237 256 254 279 245 172 195 207 178 176 91 238 255 230 195 207 219 194 217 225
248 248 247 244 242 239 235 235 234 233 231 221 155 159 212 178 176 162 168 188 204 242 176 175 197 197 199 115 181 166 186 168 165 125 267 9 258 205 173 238 146 274 336 154 4 164 189 227 59 146 192 285 68 202 228 56 236 4 116 321 324 289 132 307 26 239 240 238 243 254 269 239 183 245 145 191 85 245 227 234 164 174 209 228 201 217 230
241 244 243 244 243 242 239 236 234 234 234 229 203 189 187 171 179 177 180 208 210 238 230 191 181 203 196 193 199 171 207 92 187 164 178 198 256 76 3 294 322 90 344 92 186 226 128 222 200 146 226 222 249 166 20 231 166 182 214 202 181 205 131 237 221 228 22 81 262 272 272 276 138 159 43 290 126 231 191 194 241 204 206 198 220 215 238
247 244 241 239 241 242 241 238 237 234 232 232 225 196 215 182 186 196 197 201 207 238 254 201 162 209 196 215 212 200 183 203 188 192 211 194 195 103 170 204 216 137 207 154 179 224 163 236 204 192 225 166 247 83 207 152 302 266 191 226 238 182 116 239 258 175 212 192 208 213 213 197 205 155 185 211 207 185 167 208 293 268 227 226 214 223 223
250 256 256 249 240 238 240 240 238 238 235 234 229 196 225 195 185 201 206 195 208 223 232 231 194 211 213 216 217 202 202 211 206 174 158 206 219 194 201 153 187 147 207 121 61 356 331 182 30 58 259 252 20 220 156 333 251 253 352 69 315 193 205 205 241 211 150 213 228 236 249 236 221 190 227 231 252 258 266 253 245 265 276 196 201 246 242
244 243 244 250 250 243 239 240 239 238 236 236 230 183 216 187 190 194 152 206 238 306 321 245 78 304 299 259 242 207 213 215 185 174 175 181 228 226 204 197 235 203 178 174 176 175 188 137 218 164 356 204 192 245 283 195 263 164 227 224 230 264 230 19 13 256 261 254 253 253 289 264 261 223 225 246 260 267 234 222 246 241 242 222 214 237 248
242 241 241 241 242 243 242 240 239 239 238 236 228 164 215 196 155 104 142 216 185 245 248 216 214 237 226 234 222 207 219 195 192 202 196 189 208 245 245 226 158 144 210 210 178 193 203 152 219 142 235 221 98 219 241 248 227 193 200 272 242 242 204 196 249 271 284 266 265 200 251 255 258 262 260 248 224 253 235 204 227 254 255 246 223 229 243
243 241 241 239 242 241 240 240 241 241 239 237 236 220 157 108 160 162 163 191 204 198 234 204 216 230 235 232 172 194 210 202 197 194 182 195 211 213 226 198 175 194 217 196 132 97 96 197 240 176 236 234 145 245 212 241 259 151 228 245 262 278 155 204 242 251 239 261 268 246 229 252 257 249 267 275 275 262 239 225 231 237 253 246 251 218 246
239 239 239 237 238 239 236 236 240 240 240 236 230 183 192 203 165 176 181 223 203 166 226 238 254 279 130 156 207 213 172 184 195 195 197 204 211 219 226 85 283 144 152 129 129 191 177 176 211 222 219 266 168 227 233 202 246 172 201 244 219 217 94 226 176 232 251 259 262 266 275 272 267 262 252 251 259 273 278 267 234 229 242 274 306 194 246
242 240 243 241 238 239 240 238 236 237 239 240 233 194 186 169 169 175 183 181 193 274 211 241 236 290 277 216 215 103 157 181 195 203 211 213 216 219 216 212 192 172 176 196 204 195 158 208 189 231 207 235 206 229 214 263 220 243 246 253 229 198 245 213 203 265 261 253 258 245 271 273 266 254 250 245 247 249 259 292 360 33 4 359 328 338 63
243 243 241 240 239 238 237 234 235 239 239 238 233 189 164 176 193 192 194 187 192 229 339 292 191 246 65 286 240 184 179 187 192 201 209 213 211 208 216 218 210 207 204 193 220 186 196 207 230 221 232 165 205 243 226 254 270 254 247 252 210 226 240 215 226 238 257 260 254 241 245 260 263 269 281 95 13 176 226 255 189 130 102 72 43 330 324
243 242 240 238 239 241 240 236 232 234 233 235 138 99 146 213 203 197 196 193 198 234 268 242 62 51 244 253 128 185 210 184 194 200 206 211 205 207 209 213 210 218 213 212 224 228 223 230 217 212 204 189 168 240 178 218 218 235 240 247 240 232 232 233 242 251 262 269 272 261 210 246 263 268 189 136 341 131 143 147 135 146 160 124 108 207 264
245 247 244 237 235 235 234 238 238 236 233 179 80 86 211 244 197 200 192 187 180 192 223 229 242 250 8 94 230 205 189 191 200 200 205 205 205 205 208 205 212 208 212 214 210 229 223 233 224 221 215 149 192 219 212 223 235 243 250 252 253 248 232 238 240 240 250 257 264 265 252 254 270 108 123 140 113 114 167 184 169 169 188 163 209 251 241
244 245 247 244 239 237 233 228 229 230 226 116 136 160 192 247 201 176 191 190 178 166 212 201 239 50 339 261 161 197 188 183 193 205 210 207 207 209 207 195 222 199 210 214 220 230 224 226 217 214 180 193 205 205 231 229 248 254 254 237 240 237 236 239 240 239 247 255 261 275 329 250 138 82 208 163 129 120 108 176 280 308 250 266 253 248 262
243 244 245 245 242 239 239 237 233 229 200 155 193 192 188 197 185 181 187 177 150 156 174 219 252 223 244 241 218 231 186 190 188 167 191 161 215 196 204 191 208 192 210 222 220 226 217 221 218 225 219 209 205 231 213 233 245 250 262 242 236 239 238 243 245 247 241 263 281 300 276 263 158 209 242 115 179 130 186 196 244 263 304 297 306 298 282
246 241 239 239 239 236 238 237 231 223 203 207 225 220 126 143 143 151 164 126 131 182 168 185 216 212 230 239 341 287 154 88 115 143 232 170 197 153 212 189 211 207 213 231 206 233 177 200 217 236 229 152 204 209 232 233 241 253 261 264 260 250 247 245 248 295 189 36 173 223 251 265 195 143 88 191 110 155 58 356 323 332 339 339 314 311 335
245 243 242 238 238 236 237 236 232 229 214 108 225 214 209 134 140 141 133 130 145 167 151 189 194 211 240 3 47 268 150 163 189 167 234 216 159 154 194 148 181 198 186 207 193 217 211 180 215 230 122 212 212 227 239 242 246 256 258 257 257 259 263 236 226 205 50 56 28 32 35 122 76 52 52 123 49 35 42 21 16 356 325 336 348 6 354
243 239 237 240 241 239 233 235 233 220 218 209 220 201 172 175 155 155 149 152 142 201 179 226 160 201 220 236 200 256 163 103 173 191 193 242 142 166 148 120 185 194 214 159 229 218 227 220 152 157 226 200 211 227 236 246 248 248 253 258 260 267 43 276 251 116 74 72 41 37 39 42 97 131 124 33 360 353 23 7 4 360 335 341 338 335 351
240 233 237 237 241 239 240 235 212 177 175 208 201 174 173 182 173 168 172 176 167 188 204 209 178 215 201 234 230 244 120 236 102 87 157 127 9 324 138 171 225 209 121 169 228 203 221 164 106 234 206 197 224 219 237 237 247 254 254 256 274 130 227 261 126 123 48 31 50 85 84 48 109 150 112 34 19 34 21 347 334 351 325 311 320 327 330
242 236 232 240 230 204 212 215 183 200 204 147 150 149 158 147 76 116 139 204 256 140 174 151 188 212 185 219 88 245 131 212 145 97 124 153 187 297 124 158 214 150 173 215 210 219 223 139 203 233 221 228 236 230 235 241 242 248 259 260 101 114 123 116 86 99 80 62 63 105 71 93 53 144 109 66 49 5 351 339 344 342 327 316 316 321 319
239 234 216 153 105 198 212 215 201 165 126 132 127 100 172 144 181 163 176 200 222 103 236 142 230 195 81 140 248 172 148 230 117 171 255 235 144 245 207 197 216 186 222 208 226 169 86 160 212 217 242 238 250 228 218 202 199 68 82 98 99 114 106 95 159 122 123 295 275 264 336 352 255 28 124 301 333 316 295 296 316 298 284 288 293 304 313
241 222 174 192 165 211 200 223 157 141 121 110 68 108 199 157 117 191 201 157 163 190 182 172 212 157 164 200 191 137 174 170 185 186 191 195 152 246 135 190 207 196 256 142 259 128 212 210 209 225 245 236 245 240 120 94 84 80 84 84 106 98 99 85 66 106 157 176 158 155 158 211 261 274 309 299 294 284 291 305 303 295 292 293 300 302 300
125 188 175 143 209 202 110 160 146 133 118 144 176 138 197 178 163 213 117 88 261 280 144 223 183 179 185 201 178 219 151 144 174 209 201 213 166 176 209 89 259 114 227 189 234 93 163 223 243 201 246 228 238 131 106 124 113 98 80 87 88 85 87 88 69 75 93 50 115 136 3 298 259 278 294 302 307 304 304 298 293 298 300 294 295 298 296
169 85 113 196 173 125 150 115 39 35 107 133 127 208 129 211 201 152 130 206 180 233 179 183 124 171 185 192 195 222 171 150 337 77 125 196 191 85 109 179 165 121 220 206 235 92 85 87 260 203 235 224 223 140 136 103 110 105 105 92 93 103 93 59 79 2 55 307 358 303 322 297 288 282 280 279 288 290 291 293 293 286 285 288 289 285 288
169 138 143 94 115 111 94 89 122 113 14 181 136 198 171 168 76 31 158 158 211 178 272 163 202 179 205 186 201 176 232 97 123 120 122 214 207 159 216 298 325 171 223 202 106 67 102 219 222 258 246 234 133 138 129 119 107 120 111 93 82 98 79 61 52 332 70 266 276 301 283 278 268 264 262 273 273 272 275 280 282 280 278 278 279 284 287
108 111 108 85 38 122 131 161 203 147 169 172 120 216 165 135 193 149 204 263 315 114 243 50 239 97 327 64 31 36 153 148 157 174 117 205 85 67 138 185 112 241 210 49 82 129 169 219 225 237 230 205 159 159 144 128 119 130 97 93 88 67 72 62 254 303 288 281 270 270 274 272 271 271 274 266 274 278 273 271 275 282 281 282 279 281 281
131 115 88 156 140 244 130 211 154 87 206 185 168 187 150 154 216 88 120 221 180 219 198 160 195 150 199 177 142 135 43 122 135 77 342 296 100 196 158 205 204 246 57 49 122 181 217 239 217 230 219 124 145 148 145 144 132 104 87 98 86 355 45 344 326 334 291 281 270 273 280 283 282 282 276 266 261 271 279 278 274 275 281 284 286 287 284
118 38 102 117 194 196 107 235 104 153 195 194 175 183 170 184 187 181 192 199 142 196 172 139 137 168 159 212 41 309 134 196 1 114 216 128 96 215 139 238 187 34 154 210 205 304 352 263 264 261 199 173 166 163 135 126 129 124 136 43 22 68 4 342 320 310 301 286 277 276 274 271 274 270 265 263 261 256 270 284 288 293 293 294 291 293 288
163 168 147 152 206 202 161 218 125 202 257 167 202 189 181 195 168 195 207 104 142 149 153 174 160 137 132 241 148 188 108 114 122 205 133 76 123 233 215 354 84 139 1 53 181 211 221 232 235 235 128 149 148 148 136 127 103 108 99 82 19 350 309 307 291 285 288 303 299 299 291 294 286 291 284 273 274 277 274 278 287 287 291 293 287 284 287
123 120 116 123 164 219 111 180 215 205 176 206 199 182 187 174 169 132 131 125 140 166 105 75 127 169 150 187 94 7 53 33 142 195 84 108 192 240 62 110 216 186 185 220 222 241 258 241 228 116 146 134 136 132 124 124 111 107 113 164 298 296 296 290 290 291 292 300 302 298 296 293 289 285 287 290 280 274 276 280 282 280 278 275 279 282 284
174 145 113 162 207 151 190 218 127 70 28 120 287 344 313 126 118 188 236 181 141 129 131 124 108 61 35 309 71 162 167 178 84 284 154 201 66 51 184 155 234 240 193 180 223 219 226 223 182 158 134 132 129 128 126 121 114 114 138 251 270 280 284 285 289 287 295 296 295 293 285 285 283 287 293 292 295 290 285 279 277 277 275 274 276 276 277
61 127 162 184 208 105 341 1 135 156 359 345 321 282 159 145 191 160 155 158 141 151 162 125 169 107 182 148 132 133 258 219 121 218 79 83 157 204 168 221 181 243 246 197 222 220 216 154 130 119 122 113 117 120 128 132 143 200 236 259 269 271 287 288 285 290 292 285 279 285 292 295 300 300 296 300 297 294 289 284 282 281 276 273 275 275 277
82 28 42 81 65 327 208 122 64 111 325 355 344 253 282 208 143 144 247 97 123 113 132 83 111 100 173 122 139 153 210 195 164 74 82 209 202 218 84 233 231 199 247 242 234 211 114 121 120 115 123 121 117 142 121 268 124 297 279 280 294 291 282 276 289 287 284 283 289 292 297 305 301 297 294 292 291 293 297 293 287 281 280 273 266 264 263
349 96 148 104 146 193 146 146 174 202 267 243 211 226 138 108 118 163 162 137 149 99 68 137 163 108 103 55 110 144 230 127 104 185 166 195 159 144 191 215 229 215 222 291 314 122 145 163 133 143 141 159 173 140 171 170 214 261 292 277 276 279 280 274 271 283 292 298 307 311 309 300 291 287 285 290 293 297 297 291 283 274 268 272 266 261 262
64 74 177 196 69 11 168 156 41 113 198 179 155 212 143 172 182 182 194 133 147 140 177 170 100 111 117 188 204 179 57 52 177 69 19 259 154 158 213 200 221 222 174 163 166 165 146 185 163 150 160 152 170 202 197 209 243 263 262 272 279 289 294 294 296 301 310 317 315 307 293 287 290 291 295 296 293 299 293 290 289 288 283 274 271 267 261